Regional Weather Roundup
Issued by NWS Kansas City/Pleasant Hill, MO

Home | Current Version | Previous Version | Graphics & Text | Print | Product List | Glossary Off
Versions: 1 2 3 4 5 6 7 8 9 10 11 12 13 14 15 16 17 18 19 20 21 22 23 24 25 26 27 28 29 30 31 32 33 34 35 36 37 38 39 40 41 42 43 44 45 46 47 48 49 50

000
ASUS43 KEAX 272210
RWREAX

WEATHER ROUNDUP FOR EASTERN KANSAS AND NORTHWEST MISSOURI
NATIONAL WEATHER SERVICE KANSAS CITY/PLEASANT HILL MO
500 PM CDT FRI MAR 27 2015

KSZ040-057-103>105-MOZ028-029-037-043-272300-
...KANSAS CITY METROPOLITAN AREA...

CITY           SKY/WX    TMP DP  RH WIND       PRES   REMARKS
K.C. INTL      CLOUDY    43  19  38 N7        30.14F
K.C. DOWNTOWN  MOSUNNY   45  14  28 VRB3      30.15F
LEES SUMMIT    MOSUNNY   44  15  31 N6        30.14F
OLATHE - IXD   PTSUNNY   43  18  36 CALM      30.15F
OLATHE - OJC   MOSUNNY   43  17  35 VRB3      30.13F
LAWRENCE       PTSUNNY   43  19  38 NW6       30.16S

$$

MOZ001>008-011>017-020>025-030>033-038>040-044>046-053-054-272300-
...NORTHERN AND CENTRAL MISSOURI...

CITY           SKY/WX    TMP DP  RH WIND       PRES   REMARKS
ST. JOSEPH     CLOUDY    42  17  36 CALM      30.16F
MOSBY          MOCLDY    41  18  38 N5        30.15F
WARRENSBURG    MOSUNNY   43  16  33 CALM      30.15F
WHITEMAN AFB   PTSUNNY   43  19  37 N7        30.14F
CLINTON        SUNNY     45  21  39 NW3       30.15F
SEDALIA        MOSUNNY   44  21  40 NE5       30.15F
WARSAW         NOT AVBL
MARSHALL       SUNNY     45  21  39 NW6       30.16F
CHILLICOTHE      N/A     43  17  35 VRB3      30.16F
MOBERLY        MOSUNNY   43  14  31 N5        30.15F
KIRKSVILLE     MOSUNNY   42  12  29 N9        30.15F

$$

MOZ041-047>049-056>058-063>065-088>090-097-272300-
...EASTERN AND SOUTHERN MISSOURI...

CITY           SKY/WX    TMP DP  RH WIND       PRES   REMARKS
ST. LOUIS INTL MOSUNNY   44  21  40 N14G20    30.15F
SPIRIT OF STL  MOSUNNY   42  19  39 NW9       30.15F
COLUMBIA       MOSUNNY   42  20  41 N5        30.14F
JEFFERSON CITY SUNNY     44  17  33 N7        30.15F
MEXICO         FAIR      43  27  52 N7        30.15F
HANNIBAL       MOSUNNY   43   9  24 NW7G16    30.15F
ROLLA          SUNNY     41  20  43 N12       30.12F WCI  34
LEBANON        SUNNY     45  18  33 N6        30.12S
OSAGE BEACH    MOSUNNY   45  19  36 NW8       30.14F
SPRINGFIELD    SUNNY     46  19  34 NW10G18   30.11F
BRANSON        SUNNY     46  23  39 N13G21    30.12F
NEVADA         SUNNY     46  19  34 NW5       30.15F
JOPLIN         SUNNY     48  21  34 VRB6      30.14F
WEST PLAINS    PTSUNNY   46  21  37 N12G20    30.11F

$$

IAZ060-094-KSZ022-034>040-054-083-096-NEZ052-066-093-272300-
...KANSAS...SOUTHEAST NEBRASKA AND IOWA...

CITY           SKY/WX    TMP DP  RH WIND       PRES   REMARKS
TOPEKA         CLOUDY    44  18  35 CALM      30.16F
MANHATTAN      CLOUDY    46  16  30 VRB3      30.15F
EMPORIA        CLOUDY    46  18  32 VRB5      30.13F
CHANUTE        SUNNY     51  23  33 N8        30.14F
WICHITA        CLOUDY    50  28  42 W8        30.14F
OMAHA          CLOUDY    40  10  29 SW10      30.16S WCI  33
LINCOLN        CLOUDY    39  23  52 SW8       30.16F WCI  33
FALLS CITY     CLOUDY    40  16  37 CALM      30.17F
LAMONI         CLOUDY    42  12  29 NW5       30.14F
DES MOINES     CLOUDY    40   8  26 NE5       30.15F

$$




USA.gov is the U.S. government's official web portal to all federal, state and local government web resources and services.